Flag for Australia Weather past 2 weeks in Sydney, New South Wales, Australia

Now
70 °F

Passing clouds.


Feels Like: 70 °F
Forecast: 63 / 75 °F
Wind: 6 mph from Southeast

Location: Sydney Airport

Current Time: Mar 30, 2015 at 9:27:53 PM

Latest Report: Mar 30, 2015 at 9:00 PM


Visibility: N/A

Pressure: 30.27 "Hg

Humidity: 73%

Dew point: 61 °F

Location of SydneyLocation

Historic Weather in Sydney — Graph

°F

Sydney temperature yesterday

Maximum temperature yesterday: 79 °F (at 2:00 PM)
Minimum temperature yesterday: 61 °F (at 3:30 AM)
Average temperature yesterday: 69 °F

Past Weeks' High & Low Weather Summary

 TemperatureHumidityPressure
High86 °F (Mar 18, 12:30 PM)100% (Mar 24, 7:30 PM)30.30 "Hg (Mar 24, 7:30 PM)
Low57 °F (Mar 27, 7:00 AM)18% (Mar 27, 4:00 PM)29.59 "Hg (Mar 18, 4:00 PM)
Average71 °F64%30.02 "Hg
* Reported Mar 15 8:00 PM — Mar 30 8:00 PM, Sydney, Weather by CustomWeather, © 2015

Note: Actual official high and low records may vary slightly from our data, if they occured in-between our weather recording intervals... More about our weather records

Advertising

Sydney weather history for previous 24 hours

 ConditionsComfort  
Time TempWeatherWind HumidityBarometerVisibility
8:00 PM
Mon, Mar 30
70 °FPassing clouds.5 mph73%30.24 "HgN/A
7:30 PM70 °FPassing clouds.7 mph73%30.24 "HgN/A
7:00 PM72 °FPassing clouds.6 mph69%30.24 "HgN/A
6:30 PM72 °FPartly sunny.7 mph69%30.21 "HgN/A
6:00 PM72 °FPartly sunny.9 mph65%30.21 "HgN/A
5:30 PM73 °FScattered clouds.10 mph57%30.21 "HgN/A
5:00 PM73 °FScattered clouds.10 mph61%30.18 "HgN/A
4:30 PM73 °FScattered clouds.12 mph61%30.18 "HgN/A
4:00 PM73 °FScattered clouds.15 mph57%30.18 "HgN/A
3:30 PM73 °FScattered clouds.14 mph65%30.18 "HgN/A
3:00 PM75 °FPartly sunny.9 mph61%30.18 "HgN/A
2:00 PM73 °FPartly sunny.1 mph57%30.18 "HgN/A
1:30 PM70 °FPartly sunny.7 mph73%30.21 "HgN/A
1:00 PM70 °FPartly sunny.13 mph73%30.21 "HgN/A
12:30 PM70 °FBroken clouds.9 mph69%30.21 "HgN/A
12:00 PM68 °FLight rain. Partly sunny.14 mph73%30.21 "HgN/A
11:30 AM66 °FSprinkles. Broken clouds.17 mph78%30.24 "HgN/A
11:00 AM64 °FThunderstorms. Broken clouds.17 mph83%30.24 "HgN/A
10:00 AM68 °FScattered showers. Broken clouds.6 mph88%30.24 "HgN/A
9:30 AM68 °FScattered showers. Partly sunny.5 mph83%30.24 "HgN/A
9:00 AM68 °FLight rain. Broken clouds.7 mph78%30.24 "HgN/A
8:00 AM66 °FBroken clouds.8 mph78%30.21 "HgN/A
7:30 AM68 °FBroken clouds.6 mph78%30.21 "HgN/A
7:00 AM68 °FPartly cloudy.8 mph73%30.21 "HgN/A
6:00 AM68 °FClear.5 mph78%30.18 "Hg10 mi
5:30 AM66 °FClear.6 mph83%30.18 "Hg10 mi
5:00 AM66 °FClear.5 mph83%30.15 "Hg10 mi
4:30 AM66 °FPassing clouds.6 mph83%30.15 "HgN/A
4:00 AM66 °FPartly cloudy.5 mph88%30.15 "HgN/A
3:30 AM66 °FPartly cloudy.6 mph88%30.15 "HgN/A
3:00 AM66 °FPassing clouds.6 mph88%30.15 "HgN/A
2:30 AM66 °FPassing clouds.5 mph88%30.18 "HgN/A
2:00 AM66 °FPassing clouds.6 mph88%30.18 "HgN/A
1:30 AM68 °FPassing clouds.6 mph78%30.18 "HgN/A
1:00 AM68 °FPassing clouds.6 mph78%30.18 "HgN/A
12:30 AM68 °FPassing clouds.7 mph78%30.18 "HgN/A
12:00 AM68 °FPassing clouds.7 mph83%30.21 "HgN/A
11:30 PM
Sun, Mar 29
70 °FPassing clouds.6 mph73%30.21 "HgN/A
11:00 PM70 °FClear.1 mph78%30.21 "Hg10 mi
10:00 PM73 °FClear.8 mph65%30.18 "Hg10 mi
9:30 PM72 °FClear.9 mph69%30.18 "Hg10 mi
9:00 PM72 °FClear.9 mph69%30.18 "Hg10 mi
Weather by CustomWeather, © 2015

See weather overviewHow to use our weather pages